Weather History for Haleyville, AL

Change the Weather History Date:

Wednesday, September 4, 2013

  Actual Average (KJFX) Record (KJFX)
Temperature  
Mean Temperature 72 °F -  
Max Temperature 86 °F 86 °F 98 °F (1990)
Min Temperature 59 °F 63 °F 52 °F (1982)
Cooling Degree Days 8    
Growing Degree Days 22 (Base 50)    
Moisture  
Dew Point 64 °F    
Average Humidity 84    
Maximum Humidity 100    
Minimum Humidity 44    
Precipitation  
Precipitation 0.00 in - - ()
Sea Level Pressure  
Sea Level Pressure 30.14 in    
Wind  
Wind Speed 1 mph (NNE)    
Max Wind Speed 6 mph    
Max Gust Speed -    
Visibility 7 miles    
Events      
Averages and records for this station are not official NWS values.
T = Trace of Precipitation, MM = Missing Value Source: NWS Daily Summary

Daily Weather History Graph

Daily Weather History Graph

Search for Another Location

Airport:

Trip Planner

Search our weather history database for the weather conditions in past years. The results will help you decide how hot, cold, wet, or windy it might be!

Date:

Astronomy

Sep. 04, 2013 Rise Set
Actual Time 6:26 AM CDT 7:12 PM CDT
Civil Twilight 6:00 AM CDT 7:37 PM CDT
Nautical Twilight 5:30 AM CDT 8:07 PM CDT
Astronomical Twilight 4:59 AM CDT 8:38 PM CDT
Moon 5:37 AM CDT (9/4) 6:33 PM CDT (9/4)
Length of Visible Light 13h 36m
Length of Day
12h 45m
Waning Crescent, 1% of the Moon is Illuminated
Sep 4
Waning Crescent
Sep 5
New
Sep 12
First Quarter
Sep 19
Full
Sep 26
Last Quarter

Hourly Weather History & Observations

Time (CDT) Temp. Heat Index Dew Point Humidity Pressure Visibility Wind Dir Wind Speed Gust Speed Precip Events Conditions
12:56 AM 65.8 °F - 64.9 °F 97% 30.09 in 10.0 mi Calm Calm - N/A   Clear
1:56 AM 63.9 °F - 63.9 °F 100% 30.09 in 9.0 mi Calm Calm - N/A   Clear
2:56 AM 63.9 °F - 63.9 °F 100% 30.09 in 7.0 mi Calm Calm - N/A   Clear
3:56 AM 61.9 °F - 61.9 °F 100% 30.10 in 2.0 mi Calm Calm - N/A   Clear
4:28 AM 62.6 °F - 62.6 °F 100% 30.06 in 5.0 mi Calm Calm - N/A   Clear
4:56 AM 61.9 °F - 61.9 °F 100% 30.11 in 3.0 mi Calm Calm - N/A   Clear
5:56 AM 61.0 °F - 61.0 °F 100% 30.12 in 2.0 mi Calm Calm - N/A   Clear
6:14 AM 60.8 °F - 60.8 °F 100% 30.09 in 3.0 mi Calm Calm - N/A   Clear
6:19 AM 60.8 °F - 60.8 °F 100% 30.09 in 1.8 mi Calm Calm - N/A   Clear
6:45 AM 60.8 °F - 60.8 °F 100% 30.10 in 1.2 mi Calm Calm - N/A   Clear
6:56 AM 59.9 °F - 59.9 °F 100% 30.14 in 1.8 mi Calm Calm - N/A   Clear
7:04 AM 60.8 °F - 60.8 °F 100% 30.11 in 2.5 mi Calm Calm - N/A   Clear
7:18 AM 62.6 °F - 62.6 °F 100% 30.12 in 3.0 mi Calm Calm - N/A   Clear
7:56 AM 66.9 °F - 66.9 °F 100% 30.16 in 10.0 mi Calm Calm - N/A   Clear
8:56 AM 73.9 °F - 68.0 °F 82% 30.17 in 10.0 mi Calm Calm - N/A   Clear
9:56 AM 79.0 °F - 68.0 °F 69% 30.19 in 10.0 mi NE 3.5 mph - N/A   Clear
10:56 AM 82.9 °F 85.4 °F 66.9 °F 58% 30.19 in 10.0 mi Variable 3.5 mph - N/A   Clear
11:56 AM 84.9 °F 87.1 °F 65.8 °F 53% 30.19 in 10.0 mi North 5.8 mph - N/A   Partly Cloudy
12:56 PM 84.9 °F 86.6 °F 64.9 °F 51% 30.18 in 10.0 mi Variable 4.6 mph - N/A   Scattered Clouds
1:56 PM 86.9 °F 88.6 °F 64.9 °F 48% 30.17 in 10.0 mi North 5.8 mph - N/A   Clear
2:56 PM 86.0 °F 86.3 °F 61.9 °F 44% 30.15 in 10.0 mi Calm Calm - N/A   Clear
3:56 PM 86.9 °F 88.1 °F 63.9 °F 46% 30.14 in 10.0 mi North 5.8 mph - N/A   Clear
4:56 PM 82.9 °F 85.4 °F 66.9 °F 58% 30.13 in 10.0 mi Calm Calm - N/A   Clear
5:56 PM 83.8 °F 85.6 °F 64.9 °F 53% 30.14 in 10.0 mi Calm Calm - N/A   Clear
6:56 PM 75.9 °F - 68.9 °F 79% 30.14 in 10.0 mi Calm Calm - N/A   Clear
7:56 PM 70.0 °F - 68.0 °F 93% 30.16 in 10.0 mi Calm Calm - N/A   Clear
8:56 PM 68.9 °F - 66.9 °F 93% 30.18 in 10.0 mi Calm Calm - N/A   Clear
9:56 PM 66.9 °F - 65.8 °F 96% 30.19 in 5.0 mi Calm Calm - N/A   Clear
10:56 PM 65.8 °F - 65.8 °F 100% 30.20 in 5.0 mi Calm Calm - N/A   Clear
11:56 PM 63.9 °F - 63.9 °F 100% 30.20 in 4.0 mi Calm Calm - N/A   Clear